Time,TemperatureF,DewpointF,PressureIn,WindDirection,WindDirectionDegrees,WindSpeedMPH,WindSpeedGustMPH,Humidity,HourlyPrecipIn,Conditions,Clouds,dailyrainin,SoftwareType,DateUTC
2013-04-20 00:03:00,52.0,50.0,29.72,WNW,296,7.0,-999.0,94,-99.99,,,-99.99,,2013-04-20 04:03:00,
2013-04-20 00:12:00,52.0,50.0,29.72,WNW,296,7.0,-999.0,94,-99.99,,,-99.99,,2013-04-20 04:12:00,
2013-04-20 00:23:00,52.0,50.0,29.75,West,269,8.0,-999.0,93,-99.99,,,-99.99,,2013-04-20 04:23:00,
2013-04-20 00:33:00,52.0,50.0,29.75,West,273,8.0,-999.0,94,-99.99,,,-99.99,,2013-04-20 04:33:00,
2013-04-20 00:42:00,52.0,50.0,29.75,West,273,8.0,-999.0,94,-99.99,,,-99.99,,2013-04-20 04:42:00,
2013-04-20 00:52:00,51.0,50.0,29.74,WNW,290,9.0,-999.0,95,-99.99,,,-99.99,,2013-04-20 04:52:00,
2013-04-20 01:02:00,51.0,50.0,29.73,NW,326,8.0,-999.0,95,-99.99,,,-99.99,,2013-04-20 05:02:00,
2013-04-20 01:12:00,51.0,50.0,29.73,NW,326,8.0,-999.0,95,-99.99,,,-99.99,,2013-04-20 05:12:00,
2013-04-20 01:22:00,49.0,47.0,29.75,WNW,301,12.0,-999.0,93,-99.99,,,-99.99,,2013-04-20 05:22:00,
2013-04-20 01:32:00,48.0,45.0,29.76,WNW,290,12.0,-999.0,91,-99.99,,,-99.99,,2013-04-20 05:32:00,
2013-04-20 01:43:00,48.0,45.0,29.76,WNW,290,12.0,-999.0,91,-99.99,,,-99.99,,2013-04-20 05:43:00,
2013-04-20 01:52:00,48.0,46.0,29.78,WNW,286,10.0,-999.0,92,-99.99,,,-99.99,,2013-04-20 05:52:00,
2013-04-20 02:02:00,48.0,46.0,29.77,WNW,300,8.0,-999.0,92,-99.99,,,-99.99,,2013-04-20 06:02:00,
2013-04-20 02:12:00,48.0,46.0,29.77,WNW,300,8.0,-999.0,92,-99.99,,,-99.99,,2013-04-20 06:12:00,
2013-04-20 02:21:00,48.0,46.0,29.77,WNW,293,7.0,-999.0,93,-99.99,,,-99.99,,2013-04-20 06:21:00,
2013-04-20 02:32:00,48.0,46.0,29.77,WNW,299,9.0,-999.0,92,-99.99,,,-99.99,,2013-04-20 06:32:00,
2013-04-20 02:42:00,48.0,46.0,29.77,WNW,299,9.0,-999.0,92,-99.99,,,-99.99,,2013-04-20 06:42:00,
2013-04-20 02:52:00,47.0,45.0,29.77,NW,306,8.0,-999.0,91,-99.99,,,-99.99,,2013-04-20 06:52:00,
2013-04-20 03:02:00,47.0,45.0,29.78,WNW,302,8.0,-999.0,91,-99.99,,,-99.99,,2013-04-20 07:02:00,
2013-04-20 03:11:00,47.0,45.0,29.78,WNW,302,8.0,-999.0,91,-99.99,,,-99.99,,2013-04-20 07:11:00,
2013-04-20 03:22:00,47.0,44.0,29.79,WNW,294,7.0,-999.0,90,-99.99,,,-99.99,,2013-04-20 07:22:00,
2013-04-20 03:32:00,47.0,44.0,29.80,WNW,286,8.0,-999.0,90,-99.99,,,-99.99,,2013-04-20 07:32:00,
2013-04-20 03:42:00,47.0,44.0,29.79,WNW,290,6.0,-999.0,89,-99.99,,,-99.99,,2013-04-20 07:42:00,
2013-04-20 03:52:00,47.0,44.0,29.79,WNW,290,6.0,-999.0,89,-99.99,,,-99.99,,2013-04-20 07:52:00,
2013-04-20 04:02:00,47.0,44.0,29.80,WNW,293,6.0,-999.0,90,-99.99,,,-99.99,,2013-04-20 08:02:00,
2013-04-20 04:11:00,47.0,44.0,29.80,WNW,293,6.0,-999.0,90,-99.99,,,-99.99,,2013-04-20 08:11:00,
2013-04-20 04:21:00,46.0,44.0,29.82,WNW,291,6.0,-999.0,91,-99.99,,,-99.99,,2013-04-20 08:21:00,
2013-04-20 04:32:00,46.0,44.0,29.83,WNW,291,5.0,-999.0,92,-99.99,,,-99.99,,2013-04-20 08:32:00,
2013-04-20 04:42:00,46.0,44.0,29.83,WNW,291,5.0,-999.0,92,-99.99,,,-99.99,,2013-04-20 08:42:00,
2013-04-20 04:52:00,46.0,44.0,29.83,WNW,287,7.0,-999.0,92,-99.99,,,-99.99,,2013-04-20 08:52:00,
2013-04-20 05:02:00,46.0,44.0,29.84,WNW,287,5.0,-999.0,92,-99.99,,,-99.99,,2013-04-20 09:02:00,
2013-04-20 05:12:00,46.0,44.0,29.84,WNW,287,5.0,-999.0,92,-99.99,,,-99.99,,2013-04-20 09:12:00,
2013-04-20 05:21:00,46.0,44.0,29.85,West,273,7.0,-999.0,92,-99.99,,,-99.99,,2013-04-20 09:21:00,
2013-04-20 05:33:00,47.0,44.0,29.87,West,272,8.0,-999.0,90,-99.99,,,-99.99,,2013-04-20 09:33:00,
2013-04-20 05:43:00,47.0,44.0,29.87,West,272,8.0,-999.0,90,-99.99,,,-99.99,,2013-04-20 09:43:00,
2013-04-20 05:53:00,47.0,43.0,29.87,West,275,11.0,-999.0,86,-99.99,,,-99.99,,2013-04-20 09:53:00,
2013-04-20 06:03:00,47.0,41.0,29.87,West,276,12.0,-999.0,79,-99.99,,,-99.99,,2013-04-20 10:03:00,
2013-04-20 06:13:00,47.0,41.0,29.87,West,276,12.0,-999.0,79,-99.99,,,-99.99,,2013-04-20 10:13:00,
2013-04-20 06:23:00,46.0,40.0,29.88,West,272,11.0,-999.0,78,-99.99,,,-99.99,,2013-04-20 10:23:00,
2013-04-20 06:33:00,46.0,39.0,29.88,West,275,9.0,-999.0,77,-99.99,,,-99.99,,2013-04-20 10:33:00,
2013-04-20 06:42:00,46.0,39.0,29.88,West,275,9.0,-999.0,77,-99.99,,,-99.99,,2013-04-20 10:42:00,
2013-04-20 06:52:00,46.0,39.0,29.89,West,281,11.0,-999.0,76,-99.99,,,-99.99,,2013-04-20 10:52:00,
2013-04-20 07:02:00,45.0,38.0,29.90,West,272,9.0,-999.0,77,-99.99,,,-99.99,,2013-04-20 11:02:00,
2013-04-20 07:12:00,45.0,38.0,29.91,West,271,10.0,-999.0,76,-99.99,,,-99.99,,2013-04-20 11:12:00,
2013-04-20 07:23:00,45.0,38.0,29.91,West,271,10.0,-999.0,76,-99.99,,,-99.99,,2013-04-20 11:23:00,
2013-04-20 07:32:00,45.0,38.0,29.91,West,273,10.0,-999.0,75,-99.99,,,-99.99,,2013-04-20 11:32:00,
2013-04-20 07:42:00,45.0,38.0,29.91,West,273,10.0,-999.0,75,-99.99,,,-99.99,,2013-04-20 11:42:00,
2013-04-20 07:52:00,45.0,37.0,29.92,West,269,11.0,-999.0,73,-99.99,,,-99.99,,2013-04-20 11:52:00,
2013-04-20 08:02:00,45.0,37.0,29.93,West,268,10.0,-999.0,73,-99.99,,,-99.99,,2013-04-20 12:02:00,
2013-04-20 08:11:00,45.0,37.0,29.93,West,268,10.0,-999.0,73,-99.99,,,-99.99,,2013-04-20 12:11:00,
2013-04-20 08:22:00,45.0,37.0,29.94,West,274,12.0,-999.0,72,-99.99,,,-99.99,,2013-04-20 12:22:00,
2013-04-20 08:32:00,45.0,35.0,29.95,WNW,286,18.0,-999.0,68,-99.99,,,-99.99,,2013-04-20 12:32:00,
2013-04-20 08:42:00,45.0,35.0,29.95,WNW,286,18.0,-999.0,68,-99.99,,,-99.99,,2013-04-20 12:42:00,
2013-04-20 08:52:00,45.0,34.0,29.95,West,274,16.0,-999.0,65,-99.99,,,-99.99,,2013-04-20 12:52:00,
2013-04-20 09:02:00,44.0,32.0,29.96,West,281,17.0,-999.0,63,-99.99,,,-99.99,,2013-04-20 13:02:00,
2013-04-20 09:11:00,44.0,32.0,29.96,West,281,17.0,-999.0,63,-99.99,,,-99.99,,2013-04-20 13:11:00,
2013-04-20 09:21:00,44.0,33.0,29.97,West,270,16.0,-999.0,65,-99.99,,,-99.99,,2013-04-20 13:21:00,
2013-04-20 09:32:00,44.0,34.0,29.97,West,273,15.0,-999.0,67,-99.99,,,-99.99,,2013-04-20 13:32:00,
2013-04-20 09:42:00,44.0,34.0,29.97,West,273,15.0,-999.0,67,-99.99,,,-99.99,,2013-04-20 13:42:00,
2013-04-20 09:52:00,43.0,32.0,29.98,West,272,15.0,-999.0,66,-99.99,,,-99.99,,2013-04-20 13:52:00,
2013-04-20 10:02:00,43.0,32.0,30.00,West,268,13.0,-999.0,65,-99.99,,,-99.99,,2013-04-20 14:02:00,
2013-04-20 10:11:00,43.0,32.0,30.00,West,268,13.0,-999.0,65,-99.99,,,-99.99,,2013-04-20 14:11:00,
2013-04-20 10:21:00,44.0,33.0,30.01,WSW,253,18.0,-999.0,64,-99.99,,,-99.99,,2013-04-20 14:21:00,
2013-04-20 10:32:00,44.0,32.0,30.01,West,272,13.0,-999.0,63,-99.99,,,-99.99,,2013-04-20 14:32:00,
2013-04-20 10:42:00,44.0,32.0,30.01,West,272,13.0,-999.0,63,-99.99,,,-99.99,,2013-04-20 14:42:00,
2013-04-20 10:51:00,45.0,34.0,30.02,WSW,254,15.0,-999.0,64,-99.99,,,-99.99,,2013-04-20 14:51:00,
2013-04-20 11:02:00,46.0,34.0,30.03,WSW,253,15.0,-999.0,62,-99.99,,,-99.99,,2013-04-20 15:02:00,
2013-04-20 11:12:00,46.0,34.0,30.03,WSW,253,15.0,-999.0,62,-99.99,,,-99.99,,2013-04-20 15:12:00,
2013-04-20 11:21:00,47.0,34.0,30.03,NW,317,16.0,-999.0,60,-99.99,,,-99.99,,2013-04-20 15:21:00,
2013-04-20 11:33:00,47.0,32.0,30.04,West,267,16.0,-999.0,55,-99.99,,,-99.99,,2013-04-20 15:33:00,
2013-04-20 11:43:00,47.0,32.0,30.04,West,267,16.0,-999.0,55,-99.99,,,-99.99,,2013-04-20 15:43:00,
2013-04-20 11:53:00,49.0,35.0,30.04,WNW,290,18.0,-999.0,58,-99.99,,,-99.99,,2013-04-20 15:53:00,
2013-04-20 12:03:00,48.0,33.0,30.04,West,262,14.0,-999.0,55,-99.99,,,-99.99,,2013-04-20 16:03:00,
2013-04-20 12:12:00,49.0,34.0,30.04,West,263,12.0,-999.0,57,-99.99,,,-99.99,,2013-04-20 16:12:00,
2013-04-20 12:23:00,49.0,34.0,30.04,West,263,12.0,-999.0,57,-99.99,,,-99.99,,2013-04-20 16:23:00,
2013-04-20 12:33:00,49.0,35.0,30.03,WSW,254,15.0,-999.0,58,-99.99,,,-99.99,,2013-04-20 16:33:00,
2013-04-20 12:42:00,49.0,35.0,30.03,WSW,254,15.0,-999.0,58,-99.99,,,-99.99,,2013-04-20 16:42:00,
2013-04-20 12:52:00,50.0,34.0,30.03,WNW,296,16.0,-999.0,55,-99.99,,,-99.99,,2013-04-20 16:52:00,
2013-04-20 13:02:00,50.0,33.0,30.03,WSW,257,11.0,-999.0,51,-99.99,,,-99.99,,2013-04-20 17:02:00,
2013-04-20 13:12:00,50.0,33.0,30.03,WSW,257,11.0,-999.0,51,-99.99,,,-99.99,,2013-04-20 17:12:00,
2013-04-20 13:23:00,50.0,33.0,30.03,West,273,13.0,-999.0,51,-99.99,,,-99.99,,2013-04-20 17:23:00,
2013-04-20 13:33:00,50.0,33.0,30.03,West,273,13.0,-999.0,51,-99.99,,,-99.99,,2013-04-20 17:33:00,
2013-04-20 13:42:00,50.0,33.0,30.03,West,273,13.0,-999.0,51,-99.99,,,-99.99,,2013-04-20 17:42:00,
2013-04-20 13:52:00,52.0,35.0,30.02,WSW,254,15.0,-999.0,52,-99.99,,,-99.99,,2013-04-20 17:52:00,
2013-04-20 14:02:00,52.0,34.0,30.03,West,259,15.0,-999.0,51,-99.99,,,-99.99,,2013-04-20 18:02:00,
2013-04-20 14:13:00,52.0,34.0,30.03,West,278,14.0,-999.0,51,-99.99,,,-99.99,,2013-04-20 18:13:00,
2013-04-20 14:22:00,52.0,34.0,30.03,West,278,14.0,-999.0,51,-99.99,,,-99.99,,2013-04-20 18:22:00,
2013-04-20 14:32:00,52.0,35.0,30.03,WNW,295,16.0,-999.0,53,-99.99,,,-99.99,,2013-04-20 18:32:00,
2013-04-20 14:42:00,52.0,35.0,30.03,WNW,295,16.0,-999.0,53,-99.99,,,-99.99,,2013-04-20 18:42:00,
2013-04-20 14:52:00,52.0,32.0,30.03,West,264,18.0,-999.0,47,-99.99,,,-99.99,,2013-04-20 18:52:00,
2013-04-20 15:02:00,51.0,30.0,30.04,West,279,20.0,-999.0,45,-99.99,,,-99.99,,2013-04-20 19:02:00,
2013-04-20 15:11:00,52.0,33.0,30.04,West,267,17.0,-999.0,48,-99.99,,,-99.99,,2013-04-20 19:11:00,
2013-04-20 15:21:00,52.0,33.0,30.04,West,267,17.0,-999.0,48,-99.99,,,-99.99,,2013-04-20 19:21:00,
2013-04-20 15:32:00,52.0,31.0,30.04,WSW,252,14.0,-999.0,45,-99.99,,,-99.99,,2013-04-20 19:32:00,
2013-04-20 15:42:00,53.0,36.0,30.05,WNW,296,18.0,-999.0,53,-99.99,,,-99.99,,2013-04-20 19:42:00,
2013-04-20 15:52:00,53.0,36.0,30.05,WNW,296,18.0,-999.0,53,-99.99,,,-99.99,,2013-04-20 19:52:00,
2013-04-20 16:02:00,52.0,34.0,30.05,West,265,16.0,-999.0,51,-99.99,,,-99.99,,2013-04-20 20:02:00,
2013-04-20 16:12:00,53.0,32.0,30.06,West,261,17.0,-999.0,45,-99.99,,,-99.99,,2013-04-20 20:12:00,
2013-04-20 16:22:00,53.0,32.0,30.06,West,261,17.0,-999.0,45,-99.99,,,-99.99,,2013-04-20 20:22:00,
2013-04-20 16:32:00,53.0,33.0,30.06,West,269,16.0,-999.0,47,-99.99,,,-99.99,,2013-04-20 20:32:00,
2013-04-20 16:42:00,53.0,33.0,30.06,West,269,16.0,-999.0,47,-99.99,,,-99.99,,2013-04-20 20:42:00,
2013-04-20 16:52:00,53.0,34.0,30.07,WSW,258,15.0,-999.0,48,-99.99,,,-99.99,,2013-04-20 20:52:00,
2013-04-20 17:02:00,53.0,34.0,30.08,WNW,289,12.0,-999.0,48,-99.99,,,-99.99,,2013-04-20 21:02:00,
2013-04-20 17:12:00,53.0,34.0,30.08,WNW,289,12.0,-999.0,48,-99.99,,,-99.99,,2013-04-20 21:12:00,
2013-04-20 17:22:00,53.0,32.0,30.09,West,259,12.0,-999.0,44,-99.99,,,-99.99,,2013-04-20 21:22:00,
2013-04-20 17:33:00,53.0,33.0,30.09,West,272,14.0,-999.0,47,-99.99,,,-99.99,,2013-04-20 21:33:00,
2013-04-20 17:43:00,53.0,33.0,30.09,West,272,14.0,-999.0,47,-99.99,,,-99.99,,2013-04-20 21:43:00,
2013-04-20 17:52:00,53.0,33.0,30.10,WNW,287,12.0,-999.0,47,-99.99,,,-99.99,,2013-04-20 21:52:00,
2013-04-20 18:03:00,52.0,31.0,30.11,WNW,302,12.0,-999.0,45,-99.99,,,-99.99,,2013-04-20 22:03:00,
2013-04-20 18:13:00,52.0,31.0,30.11,WNW,302,12.0,-999.0,45,-99.99,,,-99.99,,2013-04-20 22:13:00,
2013-04-20 18:23:00,52.0,28.0,30.12,WNW,286,15.0,-999.0,40,-99.99,,,-99.99,,2013-04-20 22:23:00,
2013-04-20 18:32:00,52.0,30.0,30.12,WNW,284,14.0,-999.0,43,-99.99,,,-99.99,,2013-04-20 22:32:00,
2013-04-20 18:42:00,52.0,30.0,30.12,WNW,284,14.0,-999.0,43,-99.99,,,-99.99,,2013-04-20 22:42:00,
2013-04-20 18:52:00,52.0,31.0,30.13,WNW,296,15.0,-999.0,45,-99.99,,,-99.99,,2013-04-20 22:52:00,
2013-04-20 19:02:00,51.0,29.0,30.14,WNW,289,15.0,-999.0,43,-99.99,,,-99.99,,2013-04-20 23:02:00,
2013-04-20 19:12:00,51.0,29.0,30.14,WNW,289,15.0,-999.0,43,-99.99,,,-99.99,,2013-04-20 23:12:00,
2013-04-20 19:22:00,51.0,30.0,30.15,WNW,291,12.0,-999.0,45,-99.99,,,-99.99,,2013-04-20 23:22:00,
2013-04-20 19:32:00,50.0,31.0,30.16,WNW,292,11.0,-999.0,47,-99.99,,,-99.99,,2013-04-20 23:32:00,
2013-04-20 19:42:00,50.0,31.0,30.16,WNW,292,11.0,-999.0,47,-99.99,,,-99.99,,2013-04-20 23:42:00,
2013-04-20 19:52:00,49.0,29.0,30.17,WNW,295,9.0,-999.0,46,-99.99,,,-99.99,,2013-04-20 23:52:00,
2013-04-20 20:01:00,48.0,29.0,30.18,WNW,288,9.0,-999.0,47,-99.99,,,-99.99,,2013-04-21 00:01:00,
2013-04-20 20:12:00,48.0,29.0,30.18,WNW,288,9.0,-999.0,47,-99.99,,,-99.99,,2013-04-21 00:12:00,
2013-04-20 20:22:00,47.0,30.0,30.19,WNW,295,5.0,-999.0,52,-99.99,,,-99.99,,2013-04-21 00:22:00,
2013-04-20 20:32:00,47.0,30.0,30.20,WNW,301,7.0,-999.0,52,-99.99,,,-99.99,,2013-04-21 00:32:00,
2013-04-20 20:42:00,47.0,30.0,30.20,WNW,301,7.0,-999.0,52,-99.99,,,-99.99,,2013-04-21 00:42:00,
2013-04-20 20:52:00,46.0,30.0,30.21,WNW,300,7.0,-999.0,53,-99.99,,,-99.99,,2013-04-21 00:52:00,
2013-04-20 21:01:00,46.0,29.0,30.23,WNW,303,8.0,-999.0,52,-99.99,,,-99.99,,2013-04-21 01:01:00,
2013-04-20 21:12:00,46.0,29.0,30.23,WNW,303,8.0,-999.0,52,-99.99,,,-99.99,,2013-04-21 01:12:00,
2013-04-20 21:21:00,46.0,29.0,30.24,WNW,300,9.0,-999.0,51,-99.99,,,-99.99,,2013-04-21 01:21:00,
2013-04-20 21:32:00,45.0,29.0,30.26,WNW,302,6.0,-999.0,54,-99.99,,,-99.99,,2013-04-21 01:32:00,
2013-04-20 21:42:00,45.0,29.0,30.26,WNW,302,6.0,-999.0,54,-99.99,,,-99.99,,2013-04-21 01:42:00,
2013-04-20 21:52:00,45.0,29.0,30.27,WNW,303,7.0,-999.0,53,-99.99,,,-99.99,,2013-04-21 01:52:00,
2013-04-20 22:02:00,45.0,28.0,30.28,NW,308,7.0,-999.0,52,-99.99,,,-99.99,,2013-04-21 02:02:00,
2013-04-20 22:11:00,45.0,28.0,30.28,NW,308,7.0,-999.0,52,-99.99,,,-99.99,,2013-04-21 02:11:00,
2013-04-20 22:22:00,45.0,28.0,30.29,NW,306,11.0,-999.0,52,-99.99,,,-99.99,,2013-04-21 02:22:00,
2013-04-20 22:32:00,44.0,28.0,30.29,WNW,298,9.0,-999.0,54,-99.99,,,-99.99,,2013-04-21 02:32:00,
2013-04-20 22:42:00,44.0,28.0,30.29,WNW,298,9.0,-999.0,54,-99.99,,,-99.99,,2013-04-21 02:42:00,
2013-04-20 22:52:00,44.0,28.0,30.30,NW,306,9.0,-999.0,54,-99.99,,,-99.99,,2013-04-21 02:52:00,
2013-04-20 23:01:00,43.0,28.0,30.30,WNW,300,8.0,-999.0,56,-99.99,,,-99.99,,2013-04-21 03:01:00,
2013-04-20 23:11:00,43.0,28.0,30.30,WNW,300,8.0,-999.0,56,-99.99,,,-99.99,,2013-04-21 03:11:00,
2013-04-20 23:22:00,43.0,28.0,30.31,NW,304,10.0,-999.0,56,-99.99,,,-99.99,,2013-04-21 03:22:00,
2013-04-20 23:33:00,43.0,29.0,30.31,NW,304,7.0,-999.0,57,-99.99,,,-99.99,,2013-04-21 03:33:00,
2013-04-20 23:42:00,43.0,29.0,30.31,NW,304,7.0,-999.0,57,-99.99,,,-99.99,,2013-04-21 03:42:00,
2013-04-20 23:52:00,42.0,28.0,30.32,NW,304,6.0,-999.0,58,-99.99,,,-99.99,,2013-04-21 03:52:00,